Regional Weather Roundup
Issued by NWS

Home | Current Version | Previous Version | Graphics & Text | Print | Product List | Glossary On
Versions: 1 2 3 4 5 6 7 8 9 10 11 12 13 14 15 16 17 18 19 20 21 22 23 24 25 26 27 28 29 30 31 32 33 34 35 36 37 38 39 40 41 42 43 44 45 46 47 48 49 50
000
ASUS43 KOAX 271503
RWRNE

WEATHER ROUNDUP FOR NEBRASKA
NATIONAL WEATHER SERVICE OMAHA NE
1000 AM CDT SUN MAY 27 2018

NOTES: SATELLITE DATA IS BEING USED TO AUGMENT CLOUD COVER ABOVE
       12000 FEET.
       "FAIR" INDICATES FEW OR NO CLOUDS BELOW 12,000 FEET WITH NO
       SIGNIFICANT WEATHER AND/OR OBSTRUCTIONS TO VISIBILITY.


NEZ001>004-019>022-054>056-271600-
NEBRASKA PANHANDLE

CITY           SKY/WX    TMP DP  RH WIND       PRES   REMARKS
SCOTTSBLUFF    MOSUNNY   73  58  59 NW9       29.86R
ALLIANCE       MOSUNNY   75  59  57 SW12      29.84S
CHADRON        PTSUNNY   71  60  68 NE13      29.84S
GORDON         FAIR      74  57  56 W6        29.86R
SIDNEY         CLOUDY    73  57  57 W13       29.91R
$$

NEZ057>060-069>072-079>082-271600-
SOUTHWEST NEBRASKA

CITY           SKY/WX    TMP DP  RH WIND       PRES   REMARKS
NORTH PLATTE   CLOUDY    79  65  62 SW10G23   29.86R
IMPERIAL       CLOUDY    76  64  66 S17G32    29.85S
LEXINGTON      PTSUNNY   78  65  65 SW15G23   29.88S
MCCOOK         PTSUNNY   80  66  62 S13       29.87S
OGALLALA       CLOUDY    76  62  63 S10       29.87R
$$

NEZ005>010-023>029-035>040-094-271600-
NORTH CENTRAL NEBRASKA

CITY           SKY/WX    TMP DP  RH WIND       PRES   REMARKS
VALENTINE      CLOUDY    81  61  50 W13       29.82R
AINSWORTH      CLOUDY    78  64  63 S20       29.83S
BROKEN BOW     MOSUNNY   79  65  62 S12       29.88R
O`NEILL        SUNNY     83  63  50 S12G17    29.85R
ORD            MOSUNNY   82  65  56 SW17      29.85R
THEDFORD       PTSUNNY   79  62  55 S17G25    29.85S
$$

NEZ041-046>049-061>064-073>077-083>087-271600-
SOUTH CENTRAL NEBRASKA

CITY           SKY/WX    TMP DP  RH WIND       PRES   REMARKS
GRAND ISLAND   SUNNY     84  64  50 SW16      29.87S
AURORA         SUNNY     83  61  46 SW15      29.88R
HASTINGS       SUNNY     83  63  50 SW16G25   29.89R
HEBRON         MOSUNNY   84  67  56 SW13G23   29.89R
HOLDREGE       MOSUNNY   80  66  63 SW17      29.89S
KEARNEY        MOSUNNY   83  66  56 SW17      29.88R
YORK           SUNNY     84  64  51 SW17      29.88R
$$

NEZ011>018-030>034-042>045-271600-
NORTHEAST NEBRASKA

CITY           SKY/WX    TMP DP  RH WIND       PRES   REMARKS
NORFOLK        SUNNY     88  51  28 SW17G25   29.85R
ALBION         SUNNY     84  63  48 SW12      29.86S
BLAIR          SUNNY     84  63  48 SW9       29.87R
COLUMBUS       SUNNY     86  59  39 SW16      29.86R
FREMONT        SUNNY     89  59  35 SW6       29.86S
TEKAMAH        SUNNY     87  63  44 S3        29.85R
$$

NEZ050>053-065>068-078-088>093-271600-
SOUTHEAST NEBRASKA

CITY           SKY/WX    TMP DP  RH WIND       PRES   REMARKS
LINCOLN        SUNNY     87  63  44 SW14      29.87R
OMAHA EPPLEY   MOSUNNY   86  65  49 VRB6      29.85S
BEATRICE       CLOUDY    86  67  53 SW13      29.88S
FALLS CITY     SUNNY     87  64  46 W13G21    29.87R
NEBRASKA CITY  SUNNY     87  63  44 W12G17    29.88R
PLATTSMOUTH    SUNNY     87  64  46 SW8       29.87S
$$

NEZ044-045-051>053-067-271600-
OMAHA AREA

CITY           SKY/WX    TMP DP  RH WIND       PRES   REMARKS
OMAHA EPPLEY   MOSUNNY   86  65  49 VRB6      29.85S
BLAIR          SUNNY     84  63  48 SW9       29.87R
FREMONT        SUNNY     89  59  35 SW6       29.86S
MILLARD        SUNNY     86  66  51 SW5       29.86S
OFFUTT AFB     SUNNY     85  65  49 SW10      29.85S
PLATTSMOUTH    SUNNY     87  64  46 SW8       29.87S
$$




USA.gov is the U.S. government's official web portal to all federal, state and local government web resources and services.